Time,TemperatureF,DewpointF,PressureIn,WindDirection,WindDirectionDegrees,WindSpeedMPH,WindSpeedGustMPH,Humidity,HourlyPrecipIn,Conditions,Clouds,dailyrainin,SolarRadiationWatts/m^2,SoftwareType,DateUTC
2013-02-20 00:21:00,21.0,-2.0,-100.00,SW,218,1.0,4.0,35,0.00,,,0.00,0.000000,,2013-02-20 07:21:00,
2013-02-20 00:31:00,21.0,-2.0,-100.00,SW,218,1.0,4.0,35,0.00,,,0.00,0.000000,,2013-02-20 07:31:00,
2013-02-20 00:42:00,21.0,-2.0,-100.00,SW,218,1.0,4.0,35,0.00,,,0.00,0.000000,,2013-02-20 07:42:00,
2013-02-20 00:51:00,21.0,-2.0,-100.00,SW,218,1.0,4.0,35,0.00,,,0.00,0.000000,,2013-02-20 07:51:00,
2013-02-20 01:21:00,18.0,-3.0,-100.00,West,275,3.0,4.0,39,0.00,,,0.00,0.000000,,2013-02-20 08:21:00,
2013-02-20 01:31:00,18.0,-3.0,-100.00,West,275,3.0,4.0,39,0.00,,,0.00,0.000000,,2013-02-20 08:31:00,
2013-02-20 01:41:00,18.0,-3.0,-100.00,West,275,3.0,4.0,39,0.00,,,0.00,0.000000,,2013-02-20 08:41:00,
2013-02-20 01:52:00,18.0,-3.0,-100.00,West,275,3.0,4.0,39,0.00,,,0.00,0.000000,,2013-02-20 08:52:00,
2013-02-20 02:21:00,20.0,-2.0,-100.00,WNW,290,1.0,4.0,37,0.00,,,0.00,0.000000,,2013-02-20 09:21:00,
2013-02-20 02:31:00,20.0,-2.0,-100.00,WNW,290,1.0,4.0,37,0.00,,,0.00,0.000000,,2013-02-20 09:31:00,
2013-02-20 02:42:00,20.0,-2.0,-100.00,WNW,290,1.0,4.0,37,0.00,,,0.00,0.000000,,2013-02-20 09:42:00,
2013-02-20 02:51:00,20.0,-2.0,-100.00,WNW,290,1.0,4.0,37,0.00,,,0.00,0.000000,,2013-02-20 09:51:00,
2013-02-20 03:22:00,17.0,-2.0,-100.00,NNW,339,2.0,3.0,42,0.00,,,0.00,0.000000,,2013-02-20 10:22:00,
2013-02-20 03:32:00,17.0,-2.0,-100.00,NNW,339,2.0,3.0,42,0.00,,,0.00,0.000000,,2013-02-20 10:32:00,
2013-02-20 03:42:00,17.0,-2.0,-100.00,NNW,339,2.0,3.0,42,0.00,,,0.00,0.000000,,2013-02-20 10:42:00,
2013-02-20 03:51:00,17.0,-2.0,-100.00,NNW,339,2.0,3.0,42,0.00,,,0.00,0.000000,,2013-02-20 10:51:00,
2013-02-20 04:21:00,17.0,-2.0,-100.00,West,259,2.0,3.0,42,0.00,,,0.00,0.000000,,2013-02-20 11:21:00,
2013-02-20 04:32:00,17.0,-2.0,-100.00,West,259,2.0,3.0,42,0.00,,,0.00,0.000000,,2013-02-20 11:32:00,
2013-02-20 04:42:00,17.0,-2.0,-100.00,West,259,2.0,3.0,42,0.00,,,0.00,0.000000,,2013-02-20 11:42:00,
2013-02-20 04:52:00,17.0,-2.0,-100.00,West,259,2.0,3.0,42,0.00,,,0.00,0.000000,,2013-02-20 11:52:00,
2013-02-20 05:21:00,19.0,0.0,-100.00,ESE,114,3.0,4.0,42,0.00,,,0.00,0.000000,,2013-02-20 12:21:00,
2013-02-20 05:32:00,19.0,0.0,-100.00,ESE,114,3.0,4.0,42,0.00,,,0.00,0.000000,,2013-02-20 12:32:00,
2013-02-20 05:42:00,19.0,0.0,-100.00,ESE,114,3.0,4.0,42,0.00,,,0.00,0.000000,,2013-02-20 12:42:00,
2013-02-20 05:52:00,19.0,0.0,-100.00,ESE,114,3.0,4.0,42,0.00,,,0.00,0.000000,,2013-02-20 12:52:00,
2013-02-20 06:22:00,18.0,2.0,-100.00,NE,41,2.0,7.0,48,0.00,,,0.00,0.000000,,2013-02-20 13:22:00,
2013-02-20 06:32:00,18.0,2.0,-100.00,NE,41,2.0,7.0,48,0.00,,,0.00,0.000000,,2013-02-20 13:32:00,
2013-02-20 06:42:00,18.0,2.0,-100.00,NE,41,2.0,7.0,48,0.00,,,0.00,0.000000,,2013-02-20 13:42:00,
2013-02-20 06:51:00,18.0,2.0,-100.00,NE,41,2.0,7.0,48,0.00,,,0.00,0.000000,,2013-02-20 13:51:00,
2013-02-20 07:21:00,17.0,3.0,-100.00,WSW,240,0.0,6.0,53,0.00,,,0.00,1.000000,,2013-02-20 14:21:00,
2013-02-20 07:32:00,17.0,3.0,-100.00,WSW,240,0.0,6.0,53,0.00,,,0.00,1.000000,,2013-02-20 14:32:00,
2013-02-20 07:42:00,17.0,3.0,-100.00,WSW,240,0.0,6.0,53,0.00,,,0.00,1.000000,,2013-02-20 14:42:00,
2013-02-20 07:52:00,17.0,3.0,-100.00,WSW,240,0.0,6.0,53,0.00,,,0.00,1.000000,,2013-02-20 14:52:00,
2013-02-20 08:22:00,17.0,3.0,-100.00,NW,305,1.0,5.0,53,0.00,,,0.00,43.000000,,2013-02-20 15:22:00,
2013-02-20 08:32:00,17.0,3.0,-100.00,NW,305,1.0,5.0,53,0.00,,,0.00,43.000000,,2013-02-20 15:32:00,
2013-02-20 08:42:00,17.0,3.0,-100.00,NW,305,1.0,5.0,53,0.00,,,0.00,43.000000,,2013-02-20 15:42:00,
2013-02-20 08:52:00,17.0,3.0,-100.00,NW,305,1.0,5.0,53,0.00,,,0.00,43.000000,,2013-02-20 15:52:00,
2013-02-20 09:21:00,22.0,4.0,-100.00,East,98,2.0,3.0,45,0.00,,,0.00,150.000000,,2013-02-20 16:21:00,
2013-02-20 09:32:00,22.0,4.0,-100.00,East,98,2.0,3.0,45,0.00,,,0.00,150.000000,,2013-02-20 16:32:00,
2013-02-20 09:42:00,22.0,4.0,-100.00,East,98,2.0,3.0,45,0.00,,,0.00,150.000000,,2013-02-20 16:42:00,
2013-02-20 09:52:00,22.0,4.0,-100.00,East,98,2.0,3.0,45,0.00,,,0.00,150.000000,,2013-02-20 16:52:00,
2013-02-20 10:21:00,31.0,7.0,-100.00,ENE,62,3.0,5.0,36,0.00,,,0.00,415.000000,,2013-02-20 17:21:00,
2013-02-20 10:32:00,31.0,7.0,-100.00,ENE,62,3.0,5.0,36,0.00,,,0.00,415.000000,,2013-02-20 17:32:00,
2013-02-20 10:42:00,31.0,7.0,-100.00,ENE,62,3.0,5.0,36,0.00,,,0.00,415.000000,,2013-02-20 17:42:00,
2013-02-20 10:52:00,31.0,7.0,-100.00,ENE,62,3.0,5.0,36,0.00,,,0.00,415.000000,,2013-02-20 17:52:00,
2013-02-20 11:21:00,33.0,10.0,-100.00,ESE,111,4.0,8.0,38,0.00,,,0.00,489.000000,,2013-02-20 18:21:00,
2013-02-20 11:32:00,33.0,10.0,-100.00,ESE,111,4.0,8.0,38,0.00,,,0.00,489.000000,,2013-02-20 18:32:00,
2013-02-20 11:42:00,33.0,10.0,-100.00,ESE,111,4.0,8.0,38,0.00,,,0.00,489.000000,,2013-02-20 18:42:00,
2013-02-20 11:52:00,33.0,10.0,-100.00,ESE,111,4.0,8.0,38,0.00,,,0.00,489.000000,,2013-02-20 18:52:00,
2013-02-20 12:21:00,34.0,12.0,-100.00,SE,126,6.0,11.0,40,0.00,,,0.00,536.000000,,2013-02-20 19:21:00,
2013-02-20 12:31:00,34.0,12.0,-100.00,SE,126,6.0,11.0,40,0.00,,,0.00,536.000000,,2013-02-20 19:31:00,
2013-02-20 12:41:00,34.0,12.0,-100.00,SE,126,6.0,11.0,40,0.00,,,0.00,536.000000,,2013-02-20 19:41:00,
2013-02-20 12:52:00,34.0,12.0,-100.00,SE,126,6.0,11.0,40,0.00,,,0.00,536.000000,,2013-02-20 19:52:00,
2013-02-20 13:21:00,30.0,10.0,-100.00,SSE,168,9.0,16.0,43,0.00,,,0.00,386.000000,,2013-02-20 20:21:00,
2013-02-20 13:31:00,30.0,10.0,-100.00,SSE,168,9.0,16.0,43,0.00,,,0.00,386.000000,,2013-02-20 20:31:00,
2013-02-20 13:41:00,30.0,10.0,-100.00,SSE,168,9.0,16.0,43,0.00,,,0.00,386.000000,,2013-02-20 20:41:00,
2013-02-20 13:51:00,30.0,10.0,-100.00,SSE,168,9.0,16.0,43,0.00,,,0.00,386.000000,,2013-02-20 20:51:00,
2013-02-20 14:21:00,27.0,15.0,-100.00,West,260,8.0,13.0,60,0.00,,,0.00,190.000000,,2013-02-20 21:21:00,
2013-02-20 14:31:00,27.0,15.0,-100.00,West,260,8.0,13.0,60,0.00,,,0.00,190.000000,,2013-02-20 21:31:00,
2013-02-20 14:42:00,27.0,15.0,-100.00,West,260,8.0,13.0,60,0.00,,,0.00,190.000000,,2013-02-20 21:42:00,
2013-02-20 14:51:00,27.0,15.0,-100.00,West,260,8.0,13.0,60,0.00,,,0.00,190.000000,,2013-02-20 21:51:00,
2013-02-20 15:21:00,26.0,16.0,-100.00,East,90,8.0,15.0,65,0.00,,,0.00,208.000000,,2013-02-20 22:21:00,
2013-02-20 15:31:00,26.0,16.0,-100.00,East,90,8.0,15.0,65,0.00,,,0.00,208.000000,,2013-02-20 22:31:00,
2013-02-20 15:42:00,26.0,16.0,-100.00,East,90,8.0,15.0,65,0.00,,,0.00,208.000000,,2013-02-20 22:42:00,
2013-02-20 15:51:00,26.0,16.0,-100.00,East,90,8.0,15.0,65,0.00,,,0.00,208.000000,,2013-02-20 22:51:00,
2013-02-20 16:22:00,25.0,21.0,-100.00,NE,48,2.0,12.0,85,0.00,,,0.00,110.000000,,2013-02-20 23:22:00,
2013-02-20 16:32:00,25.0,21.0,-100.00,NE,48,2.0,12.0,85,0.00,,,0.00,110.000000,,2013-02-20 23:32:00,
2013-02-20 16:42:00,25.0,21.0,-100.00,NE,48,2.0,12.0,85,0.00,,,0.00,110.000000,,2013-02-20 23:42:00,
2013-02-20 16:52:00,25.0,21.0,-100.00,NE,48,2.0,12.0,85,0.00,,,0.00,110.000000,,2013-02-20 23:52:00,
2013-02-20 17:21:00,24.0,20.0,-100.00,NE,42,1.0,5.0,84,0.00,,,0.00,50.000000,,2013-02-21 00:21:00,
2013-02-20 17:32:00,24.0,20.0,-100.00,NE,42,1.0,5.0,84,0.00,,,0.00,50.000000,,2013-02-21 00:32:00,
2013-02-20 17:42:00,24.0,20.0,-100.00,NE,42,1.0,5.0,84,0.00,,,0.00,50.000000,,2013-02-21 00:42:00,
2013-02-20 17:52:00,24.0,20.0,-100.00,NE,42,1.0,5.0,84,0.00,,,0.00,50.000000,,2013-02-21 00:52:00,
2013-02-20 18:21:00,22.0,20.0,-100.00,ENE,72,1.0,2.0,90,0.00,,,0.00,17.000000,,2013-02-21 01:21:00,
2013-02-20 18:32:00,22.0,20.0,-100.00,ENE,72,1.0,2.0,90,0.00,,,0.00,17.000000,,2013-02-21 01:32:00,
2013-02-20 18:42:00,22.0,20.0,-100.00,ENE,72,1.0,2.0,90,0.00,,,0.00,17.000000,,2013-02-21 01:42:00,
2013-02-20 18:51:00,22.0,20.0,-100.00,ENE,72,1.0,2.0,90,0.00,,,0.00,17.000000,,2013-02-21 01:51:00,
2013-02-20 19:21:00,21.0,19.0,-100.00,ESE,115,3.0,7.0,92,0.00,,,0.00,0.000000,,2013-02-21 02:21:00,
2013-02-20 19:32:00,21.0,19.0,-100.00,ESE,115,3.0,7.0,92,0.00,,,0.00,0.000000,,2013-02-21 02:32:00,
2013-02-20 19:42:00,21.0,19.0,-100.00,ESE,115,3.0,7.0,92,0.00,,,0.00,0.000000,,2013-02-21 02:42:00,
2013-02-20 19:51:00,21.0,19.0,-100.00,ESE,115,3.0,7.0,92,0.00,,,0.00,0.000000,,2013-02-21 02:51:00,
2013-02-20 20:21:00,20.0,18.0,-100.00,SE,131,5.0,9.0,92,0.00,,,0.00,0.000000,,2013-02-21 03:21:00,
2013-02-20 20:32:00,20.0,18.0,-100.00,SE,131,5.0,9.0,92,0.00,,,0.00,0.000000,,2013-02-21 03:32:00,
2013-02-20 20:42:00,20.0,18.0,-100.00,SE,131,5.0,9.0,92,0.00,,,0.00,0.000000,,2013-02-21 03:42:00,
2013-02-20 20:51:00,20.0,18.0,-100.00,SE,131,5.0,9.0,92,0.00,,,0.00,0.000000,,2013-02-21 03:51:00,
2013-02-20 21:22:00,18.0,16.0,-100.00,SSE,157,3.0,10.0,91,0.00,,,0.00,0.000000,,2013-02-21 04:22:00,
2013-02-20 21:32:00,18.0,16.0,-100.00,SSE,157,3.0,10.0,91,0.00,,,0.00,0.000000,,2013-02-21 04:32:00,
2013-02-20 21:42:00,18.0,16.0,-100.00,SSE,157,3.0,10.0,91,0.00,,,0.00,0.000000,,2013-02-21 04:42:00,
2013-02-20 21:51:00,18.0,16.0,-100.00,SSE,157,3.0,10.0,91,0.00,,,0.00,0.000000,,2013-02-21 04:51:00,
2013-02-20 22:22:00,17.0,15.0,-100.00,SSE,154,2.0,4.0,90,0.00,,,0.00,0.000000,,2013-02-21 05:22:00,
2013-02-20 22:34:00,17.0,15.0,-100.00,SSE,154,2.0,4.0,90,0.00,,,0.00,0.000000,,2013-02-21 05:34:00,
2013-02-20 22:44:00,17.0,15.0,-100.00,SSE,154,2.0,4.0,90,0.00,,,0.00,0.000000,,2013-02-21 05:44:00,
2013-02-20 22:53:00,17.0,15.0,-100.00,SSE,154,2.0,4.0,90,0.00,,,0.00,0.000000,,2013-02-21 05:53:00,
2013-02-20 23:11:00,17.0,15.0,-100.00,SSE,154,2.0,4.0,90,0.00,,,0.00,0.000000,,2013-02-21 06:11:00,
2013-02-20 23:21:00,17.0,15.0,-100.00,SSE,154,2.0,4.0,90,0.00,,,0.00,0.000000,,2013-02-21 06:21:00,
2013-02-20 23:31:00,17.0,15.0,-100.00,SSE,154,2.0,4.0,90,0.00,,,0.00,0.000000,,2013-02-21 06:31:00,
2013-02-20 23:41:00,17.0,15.0,-100.00,SSE,154,2.0,4.0,90,0.00,,,0.00,0.000000,,2013-02-21 06:41:00,
2013-02-20 23:51:00,17.0,15.0,-100.00,SSE,154,2.0,4.0,90,0.00,,,0.00,0.000000,,2013-02-21 06:51:00,